Retour au catalogue

DMSP 5D-2 F13 DEB

ActifPO
NORAD 40437·DEBRIS·🇺🇸 United States

Lancé Mar 24, 1995 depuis Vandenberg Space Force Base

Loading…

Prochains Passages (prochaines 24 heures)

TLE

FraisSource: Space-Track

Époque: Sep 14, 2026, 04:36 UTC

1 40437U 95015AP  26257.19189871  .00023345  00000-0  30393-2 0  9991
2 40437  98.6662 344.0698 0015523 159.0056 201.1795 14.80534851603242

Suivez DMSP 5D-2 F13 DEB en temps réel avec AllMySat

Download on the App Store